• In Czech Republic
  • List of Countries
  • For 7 days
  • Water Temperature
  • Satellite Maps
  • Weather Map
  • Weather Widgets
  • user-avatar
    Login

    Hourly Weather Asadabad

    Today, 24 August, Thursday

    Time Temperature Precipitation Wind Pressure Humidity
    00:00 +27°C° 0.6 mm 1 mps 656 mmHg 66%
    01:00 +26°C° 0.6 mm 1 mps 655 mmHg 67%
    02:00 +26°C° 0.6 mm 1 mps 655 mmHg 68%
    03:00 +25°C° 0.5 mm 1 mps 655 mmHg 69%
    04:00 +25°C° 0.5 mm 1 mps 655 mmHg 70%
    05:00 +25°C° 0 mm 1 mps 655 mmHg 72%
    06:00 +26°C° 0.3 mm 1 mps 655 mmHg 67%
    07:00 +27°C° 0.3 mm 1 mps 656 mmHg 63%
    08:00 +28°C° 0.3 mm 1 mps 656 mmHg 59%
    09:00 +29°C° 0.7 mm 2 mps 656 mmHg 56%
    10:00 +30°C° 0.7 mm 2 mps 656 mmHg 53%
    11:00 +30°C° 0.7 mm 3 mps 656 mmHg 50%
    12:00 +31°C° 1 mm 3 mps 656 mmHg 50%
    13:00 +31°C° 1 mm 3 mps 656 mmHg 49%
    14:00 +31°C° 1 mm 3 mps 656 mmHg 49%
    15:00 +31°C° 1.3 mm 3 mps 656 mmHg 49%
    16:00 +31°C° 1.3 mm 2 mps 655 mmHg 50%
    17:00 +31°C° 1.3 mm 2 mps 655 mmHg 50%
    18:00 +30°C° 1 mm 2 mps 655 mmHg 55%
    19:00 +29°C° 1 mm 2 mps 655 mmHg 59%
    20:00 +27°C° 1 mm 2 mps 655 mmHg 64%
    21:00 +27°C° 1 mm 2 mps 655 mmHg 64%
    22:00 +27°C° 1 mm 2 mps 655 mmHg 64%
    23:00 +26°C° 1 mm 2 mps 655 mmHg 65%

    Tomorrow, 25 August, Friday

    Time Temperature Precipitation Wind Pressure Humidity
    00:00 +26°C° 0.3 mm 2 mps 655 mmHg 64%
    01:00 +25°C° 0.3 mm 1 mps 655 mmHg 63%
    02:00 +25°C° 0.3 mm 1 mps 654 mmHg 61%
    03:00 +25°C° 0.4 mm 1 mps 654 mmHg 60%
    04:00 +24°C° 0.4 mm 1 mps 654 mmHg 59%
    05:00 +24°C° 0.4 mm 1 mps 654 mmHg 58%
    06:00 +25°C° 0.4 mm 1 mps 655 mmHg 53%
    07:00 +26°C° 0.4 mm 1 mps 655 mmHg 48%
    08:00 +28°C° 0.4 mm 1 mps 656 mmHg 43%
    09:00 +29°C° 0 mm 1 mps 656 mmHg 42%
    10:00 +30°C° 0 mm 2 mps 656 mmHg 40%
    11:00 +31°C° 0 mm 2 mps 656 mmHg 39%
    12:00 +31°C° 0.1 mm 2 mps 656 mmHg 37%
    13:00 +33°C° 0.1 mm 3 mps 655 mmHg 36%
    14:00 +34°C° 0.1 mm 3 mps 655 mmHg 35%
    15:00 +34°C° 0.1 mm 3 mps 655 mmHg 35%
    16:00 +34°C° 0.1 mm 3 mps 655 mmHg 35%
    17:00 +34°C° 0.1 mm 3 mps 655 mmHg 34%
    18:00 +31°C° 0.4 mm 2 mps 654 mmHg 41%
    19:00 +29°C° 0.4 mm 1 mps 654 mmHg 47%
    20:00 +28°C° 0.4 mm 1 mps 654 mmHg 53%
    21:00 +27°C° 0.4 mm 1 mps 654 mmHg 53%
    22:00 +27°C° 0.4 mm 1 mps 654 mmHg 53%
    23:00 +26°C° 0.4 mm 1 mps 654 mmHg 53%

    Day after tomorrow, 26 August, Saturday

    Time Temperature Precipitation Wind Pressure Humidity
    00:00 +26°C° 0.1 mm 1 mps 654 mmHg 52%
    01:00 +25°C° 0.1 mm 2 mps 654 mmHg 50%
    02:00 +25°C° 0.1 mm 2 mps 653 mmHg 49%
    03:00 +24°C° 0 mm 2 mps 653 mmHg 47%
    04:00 +24°C° 0 mm 2 mps 653 mmHg 45%
    05:00 +24°C° 0 mm 2 mps 653 mmHg 43%
    06:00 +25°C° 0 mm 2 mps 654 mmHg 38%
    07:00 +27°C° 0 mm 2 mps 655 mmHg 33%
    08:00 +28°C° 0 mm 1 mps 655 mmHg 29%
    09:00 +29°C° 0 mm 2 mps 655 mmHg 27%
    10:00 +30°C° 0 mm 2 mps 656 mmHg 24%
    11:00 +31°C° 0 mm 2 mps 656 mmHg 22%
    12:00 +32°C° 0 mm 2 mps 656 mmHg 22%
    13:00 +34°C° 0 mm 2 mps 655 mmHg 21%
    14:00 +34°C° 0 mm 3 mps 655 mmHg 21%
    15:00 +34°C° 0.1 mm 3 mps 655 mmHg 21%
    16:00 +34°C° 0.1 mm 2 mps 655 mmHg 21%
    17:00 +34°C° 0.1 mm 2 mps 655 mmHg 20%
    18:00 +31°C° 0 mm 2 mps 654 mmHg 25%
    19:00 +29°C° 0 mm 1 mps 654 mmHg 29%
    20:00 +27°C° 0 mm 1 mps 654 mmHg 33%
    21:00 +26°C° 0 mm 1 mps 654 mmHg 33%
    22:00 +26°C° 0 mm 1 mps 654 mmHg 33%
    23:00 +25°C° 0 mm 1 mps 654 mmHg 33%

    27 August, Sunday

    Time Temperature Precipitation Wind Pressure Humidity
    00:00 +25°C° 0 mm 2 mps 654 mmHg 32%
    01:00 +24°C° 0 mm 2 mps 654 mmHg 32%
    02:00 +24°C° 0 mm 2 mps 653 mmHg 31%
    03:00 +24°C° 0 mm 2 mps 653 mmHg 31%
    04:00 +23°C° 0 mm 2 mps 653 mmHg 31%
    05:00 +23°C° 0 mm 2 mps 654 mmHg 30%
    06:00 +25°C° 0 mm 2 mps 654 mmHg 27%
    07:00 +26°C° 0 mm 2 mps 655 mmHg 24%
    08:00 +28°C° 0 mm 1 mps 656 mmHg 21%
    09:00 +29°C° 0 mm 1 mps 656 mmHg 20%
    10:00 +30°C° 0 mm 1 mps 656 mmHg 18%
    11:00 +32°C° 0 mm 2 mps 656 mmHg 17%
    12:00 +32°C° 0 mm 2 mps 656 mmHg 16%
    13:00 +34°C° 0 mm 2 mps 656 mmHg 16%
    14:00 +35°C° 0 mm 3 mps 656 mmHg 16%
    15:00 +34°C° 0 mm 3 mps 656 mmHg 16%
    16:00 +34°C° 0 mm 2 mps 655 mmHg 16%
    17:00 +34°C° 0 mm 2 mps 655 mmHg 16%
    18:00 +31°C° 0 mm 2 mps 655 mmHg 21%
    19:00 +29°C° 0 mm 1 mps 655 mmHg 25%
    20:00 +25°C° 0 mm 0 mps 655 mmHg 29%
    21:00 +26°C° 0 mm 1 mps 655 mmHg 29%
    22:00 +26°C° 0 mm 1 mps 655 mmHg 29%
    23:00 +25°C° 0 mm 1 mps 655 mmHg 29%

    28 August, Monday

    Time Temperature Precipitation Wind Pressure Humidity
    00:00 +25°C° 0 mm 1 mps 655 mmHg 30%
    01:00 +24°C° 0 mm 1 mps 655 mmHg 30%
    02:00 +24°C° 0 mm 1 mps 655 mmHg 31%
    03:00 +23°C° 0 mm 1 mps 655 mmHg 31%
    04:00 +23°C° 0 mm 1 mps 655 mmHg 31%
    05:00 +23°C° 0 mm 1 mps 655 mmHg 32%
    06:00 +24°C° 0 mm 1 mps 656 mmHg 29%
    07:00 +26°C° 0 mm 1 mps 656 mmHg 25%
    08:00 +28°C° 0 mm 1 mps 657 mmHg 22%
    09:00 +29°C° 0 mm 1 mps 657 mmHg 21%
    10:00 +30°C° 0 mm 2 mps 657 mmHg 20%
    11:00 +31°C° 0 mm 2 mps 657 mmHg 18%
    12:00 +32°C° 0 mm 2 mps 657 mmHg 18%
    13:00 +34°C° 0 mm 3 mps 657 mmHg 17%
    14:00 +34°C° 0 mm 3 mps 656 mmHg 17%
    15:00 +34°C° 0 mm 2 mps 656 mmHg 17%
    16:00 +34°C° 0 mm 2 mps 656 mmHg 17%
    17:00 +34°C° 0 mm 2 mps 656 mmHg 18%
    18:00 +31°C° 0 mm 2 mps 655 mmHg 22%
    19:00 +29°C° 0 mm 1 mps 655 mmHg 27%
    20:00 +25°C° 0 mm 0 mps 655 mmHg 32%
    21:00 +24°C° 0 mm 0 mps 655 mmHg 32%
    22:00 +26°C° 0 mm 1 mps 655 mmHg 32%
    23:00 +25°C° 0 mm 1 mps 655 mmHg 33%

    29 August, Tuesday

    Time Temperature Precipitation Wind Pressure Humidity
    00:00 +25°C° 0 mm 1 mps 655 mmHg 33%
    01:00 +24°C° 0 mm 1 mps 655 mmHg 34%
    02:00 +24°C° 0 mm 1 mps 655 mmHg 35%
    03:00 +23°C° 0 mm 1 mps 655 mmHg 36%
    04:00 +23°C° 0 mm 1 mps 655 mmHg 36%
    05:00 +23°C° 0 mm 1 mps 655 mmHg 36%
    06:00 +25°C° 0 mm 1 mps 656 mmHg 32%
    07:00 +27°C° 0 mm 1 mps 657 mmHg 28%
    08:00 +29°C° 0 mm 1 mps 657 mmHg 24%
    09:00 +30°C° 0 mm 1 mps 658 mmHg 23%
    10:00 +31°C° 0 mm 2 mps 658 mmHg 21%
    11:00 +32°C° 0 mm 2 mps 658 mmHg 19%
    12:00 +34°C° 0 mm 2 mps 658 mmHg 18%
    13:00 +34°C° 0 mm 2 mps 657 mmHg 18%
    14:00 +35°C° 0 mm 2 mps 657 mmHg 17%
    15:00 +35°C° 0 mm 2 mps 657 mmHg 17%
    16:00 +35°C° 0 mm 2 mps 657 mmHg 18%
    17:00 +35°C° 0 mm 2 mps 656 mmHg 18%
    18:00 +32°C° 0 mm 2 mps 656 mmHg 22%
    19:00 +29°C° 0 mm 1 mps 656 mmHg 27%
    20:00 +25°C° 0 mm 0 mps 655 mmHg 31%
    21:00 +25°C° 0 mm 0 mps 655 mmHg 31%
    22:00 +26°C° 0 mm 1 mps 655 mmHg 32%
    23:00 +26°C° 0 mm 1 mps 655 mmHg 32%
    Show more